Location: Newark
(41.8083°N, 72.2500°W)
Time: 20:33:03
(UTC+00:00)

Courier 1B - Pass Details

Date: 01 December 2021
Orbit: 962 x 1209 km, 28.3° (Epoch: 19 January)

Event Time Altitude Azimuth Distance (km) Brightness Sun altitude
Rises 23:29:03 0° 241° (WSW) 3,934 11.8 -23.6°
Reaches altitude 10° 23:32:22 10° 229° (SW) 2,932 10.7 -24.3°
Maximum altitude 23:38:02 26° 176° (S) 1,941 9.1 -25.3°
Enters shadow 23:40:08 22° 150° (SSE) 2,076 9.0 -25.7°
Drops below altitude 10° 23:43:28 10° 123° (ESE) 2,790 - -26.3°
Sets 23:46:32 0° 111° (ESE) 3,707 - -26.9°
